Regional Weather Roundup
Issued by NWS

Home | Current Version | Previous Version | Text Only | Print | Product List | Glossary Off
Versions: 1 2 3 4 5 6 7 8 9 10 11 12 13 14 15 16 17 18 19 20 21 22 23 24 25 26 27 28 29 30 31 32 33 34 35 36 37 38 39 40 41 42 43 44 45 46 47 48 49 50

000
ASUS43 KBIS 262102
RWRND

NORTH DAKOTA REGIONAL WEATHER ROUNDUP
NATIONAL WEATHER SERVICE BISMARCK ND
300 PM CST SUN FEB 26 2017

NOTE: "FAIR" INDICATES FEW OR NO CLOUDS BELOW 12,000 FEET WITH NO
SIGNIFICANT WEATHER AND/OR OBSTRUCTIONS TO VISIBILITY.


NDZ001>003-009>011-017-262200-
NORTHWEST NORTH DAKOTA

CITY           SKY/WX    TMP DP  RH WIND       PRES   REMARKS
WILLISTON      FAIR      23  14  68 NW7       29.77S WCI  15
MINOT          FAIR      22  10  60 VRB7      29.76F WCI  13
MINOT AFB      SUNNY     21  11  63 SW8       29.76F WCI  12
$$

NDZ018>021-031>035-040>046-262200-
SOUTHWEST NORTH DAKOTA

CITY           SKY/WX    TMP DP  RH WIND       PRES   REMARKS
BISMARCK       CLOUDY    23  17  78 E8        29.78F HAZE    WCI  14
DICKINSON      PTSUNNY   28  21  75 N13       29.68R WCI  17
GARRISON         N/A     22  14  71 CALM      29.76F
HETTINGER ARPT CLOUDY    33  22  63 NW23      29.71S
$$

NDZ004>008-012>016-024-026-027-054-262200-
NORTHEAST NORTH DAKOTA

CITY           SKY/WX    TMP DP  RH WIND       PRES   REMARKS
GRAND FORKS    MOSUNNY   19   5  54 SW14      29.86S WCI   6
GRND FRKS AFB  SUNNY     20   7  58 W10       29.86R WCI   9
DEVILS LAKE    FAIR      13  10  88 SW5       29.81F WCI   5
$$

NDZ022-023-025-028>030-036>039-047>053-262200-
SOUTHEAST NORTH DAKOTA

CITY           SKY/WX    TMP DP  RH WIND       PRES   REMARKS
FARGO            N/A     20   9  62 MISG      29.89R
JAMESTOWN      CLOUDY    22  11  62 W6        29.80F WCI  14
$$




USA.gov is the U.S. government's official web portal to all federal, state and local government web resources and services.